Home   Weather   Leirvik   Past weeks

Flag for Norway Past Weather in Leirvik, Norway — Yesterday and Last 2 Weeks

Now
48 °F

Sprinkles. Partly cloudy.


Feels Like: 41 °F
Forecast: 50 / 53 °F
Wind: 20 mph from Northwest

Location: Stord / Soerstokken

Current Time: Sep 29, 2016 at 10:37:07 PM

Latest Report: Sep 29, 2016 at 9:20 PM


Visibility: N/A

Pressure: 29.27 "Hg

Humidity: 94%

Dew Point: 46 °F

Location of LeirvikLocation

Past Weather in Leirvik — Graph

°F

Leirvik Temperature Yesterday

Maximum temperature yesterday: 57 °F (at 2:20 PM)
Minimum temperature yesterday: 52 °F (at 7:20 PM)
Average temperature yesterday: 55 °F

High & Low Weather Summary for the Past Weeks

 TemperatureHumidityPressure
High79 °F (Sep 15, 3:20 PM)100% (Sep 20, 7:50 AM)30.18 "Hg (Sep 20, 7:50 AM)
Low48 °F (Sep 29, 9:20 PM)43% (Sep 22, 6:20 AM)29.03 "Hg (Sep 29, 2:50 PM)
Average60 °F78%29.93 "Hg
* Reported Sep 15 5:50 AM — Sep 29 9:20 PM, Leirvik, Weather by CustomWeather, © 2016

Note: Actual official high and low records may vary slightly from our data, if they occured in-between our weather recording intervals... More about our weather records

Advertising

Leirvik Weather History for the Previous 24 Hours

Scroll right to see more
 ConditionsComfort  
Time TempWeatherWind HumidityBarometerVisibility
9:20 PM
Thu, Sep 29
48 °FSprinkles. Partly cloudy.20 mph94%29.27 "HgN/A
8:50 PM50 °FSprinkles. Partly cloudy.16 mph88%29.27 "HgN/A
8:20 PM50 °FSprinkles. Partly cloudy.20 mph88%29.24 "HgN/A
7:20 PM50 °FCool.20 mph94%29.18 "Hg1 mi
6:50 PM50 °FSprinkles. Broken clouds.22 mph94%29.15 "HgN/A
6:20 PM52 °FBroken clouds.22 mph94%29.12 "HgN/A
5:50 PM52 °FBroken clouds.22 mph94%29.06 "HgN/A
5:20 PM52 °FBroken clouds.23 mph100%29.06 "HgN/A
4:50 PM54 °FBroken clouds.24 mph88%29.03 "HgN/A
4:20 PM54 °FBroken clouds.26 mph88%29.03 "Hg6 mi
3:50 PM52 °FSprinkles. Fog.30 mph88%29.03 "Hg2 mi
3:20 PM52 °FSprinkles. Broken clouds.25 mph88%29.03 "Hg6 mi
2:50 PM52 °FSprinkles. Broken clouds.29 mph88%29.03 "HgN/A
2:20 PM54 °FBroken clouds.25 mph82%29.06 "HgN/A
1:50 PM54 °FSprinkles. Broken clouds.26 mph82%29.06 "HgN/A
1:20 PM55 °FBroken clouds.24 mph77%29.09 "HgN/A
12:50 PM55 °FBroken clouds.25 mph72%29.09 "HgN/A
12:20 PM57 °FScattered showers. Broken clouds.23 mph72%29.12 "HgN/A
11:50 AM55 °FSprinkles. Broken clouds.21 mph77%29.12 "HgN/A
11:20 AM55 °FSprinkles. Broken clouds.21 mph77%N/AN/A
10:50 AM55 °FScattered showers. Broken clouds.22 mph77%N/AN/A
10:20 AM57 °FScattered showers. Broken clouds.22 mph72%29.18 "HgN/A
9:50 AM55 °FBroken clouds.23 mph77%29.21 "HgN/A
9:20 AM55 °FScattered clouds.22 mph82%29.21 "HgN/A
8:50 AM57 °FScattered clouds.20 mph82%29.21 "HgN/A
8:20 AM57 °FScattered clouds.18 mph88%29.21 "HgN/A
7:50 AM57 °FScattered clouds.15 mph88%29.24 "HgN/A
6:50 AM57 °FPassing clouds.16 mph94%29.24 "HgN/A
6:20 AM57 °FPartly cloudy.16 mph100%29.24 "HgN/A
5:50 AM59 °FSprinkles. Partly cloudy.14 mph94%29.27 "HgN/A
Weather by CustomWeather, © 2016

See weather overviewHow to use our weather pages